Torna al catalogo

STARLINK-31571

AttivoComunicazioniVLEO
NORAD 59362·PAYLOAD·🇺🇸 United States

Lanciato Mar 31, 2024 da Cape Canaveral Space Force Station

Loading…

Prossimi Passaggi (prossime 24 ore)

TLE

AggiornatoSource: CelesTrak SupGP

Epoca: Sep 15, 2026, 02:25 UTC

1 59362C 24060Q   26258.10118056 -.00006310  00000+0 -22856-3 0  2587
2 59362  42.9992 270.3486 0001332 265.7692 274.5860 15.27580296    16

Traccia STARLINK-31571 in tempo reale con AllMySat

Download on the App Store